[TLELIST] Archives

 

[list_settings.list_name] Current TLEs

December 28th 2008 PST

HST 1 20580U 90037B 08361.84565102 .00000314 00000-0 11383-4 0 2927 2 20580 028.4685 146.5996 0003668 265.4533 094.5636 15.00441675823943 ISS (ZARYA) 1 25544U 98067A 08361.52062318 .00011219 00000-0 89152-4 0 9369 2 25544 051.6417 110.7667 0007680 130.3323 334.0421 15.71790900578792 CXO 1 25867U 99040B 08352.78682399 .00000000 00000-0 10000-3 0 2762 2 25867 064.6326 075.2428 7176269 277.0774 013.2252 00.37815303 4321 ____________________________________________________________________ These 2-Line ...Continue Reading

[list_settings.list_name] Current TLEs

December 27th 2008 PST

HST 1 20580U 90037B 08360.58184315 .00000290 00000-0 95071-5 0 2919 2 20580 028.4685 154.8463 0003743 252.9981 107.0197 15.00441082823759 ISS (ZARYA) 1 25544U 98067A 08360.88385612 .00011425 00000-0 90752-4 0 9314 2 25544 051.6416 114.0260 0007544 127.4348 331.4204 15.71776844578690 CXO 1 25867U 99040B 08352.78682399 .00000000 00000-0 10000-3 0 2762 2 25867 064.6326 075.2428 7176269 277.0774 013.2252 00.37815303 4321 ____________________________________________________________________ These 2-Line ...Continue Reading

[list_settings.list_name] Current TLEs

December 26th 2008 PST

HST 1 20580U 90037B 08358.91893742 .00000284 00000-0 90963-5 0 2901 2 20580 028.4686 165.6943 0003757 235.7893 124.2340 15.00440610823509 ISS (ZARYA) 1 25544U 98067A 08359.54945694 .00009394 00000-0 75589-4 0 9231 2 25544 051.6405 120.8552 0007539 123.8604 339.4181 15.71737972578484 CXO 1 25867U 99040B 08352.78682399 .00000000 00000-0 10000-3 0 2762 2 25867 064.6326 075.2428 7176269 277.0774 013.2252 00.37815303 4321 ____________________________________________________________________ These 2-Line ...Continue Reading

[list_settings.list_name] Current TLEs

December 25th 2008 PST

HST 1 20580U 90037B 08358.91893742 .00000284 00000-0 90963-5 0 2901 2 20580 028.4686 165.6943 0003757 235.7893 124.2340 15.00440610823509 ISS (ZARYA) 1 25544U 98067A 08358.53042725 .00007541 00000-0 61688-4 0 9161 2 25544 051.6409 126.0700 0007660 120.1439 333.3426 15.71710491578327 CXO 1 25867U 99040B 08352.78682399 .00000000 00000-0 10000-3 0 2762 2 25867 064.6326 075.2428 7176269 277.0774 013.2252 00.37815303 4321 ____________________________________________________________________ These 2-Line ...Continue Reading

[list_settings.list_name] Current TLEs

December 24th 2008 PST

HST 1 20580U 90037B 08357.85467733 .00000292 00000-0 97103-5 0 2890 2 20580 028.4688 172.6347 0003759 224.4136 135.6152 15.00440416823347 ISS (ZARYA) 1 25544U 98067A 08357.56913148 .00007063 00000-0 58118-4 0 9094 2 25544 051.6410 130.9893 0007788 116.8069 293.8775 15.71692714578175 CXO 1 25867U 99040B 08352.78682399 .00000000 00000-0 10000-3 0 2762 2 25867 064.6326 075.2428 7176269 277.0774 013.2252 00.37815303 4321 ____________________________________________________________________ These 2-Line ...Continue Reading

[list_settings.list_name] Current TLEs

December 23rd 2008 PST

HST 1 20580U 90037B 08355.92570676 .00000284 00000-0 90862-5 0 2882 2 20580 028.4689 185.2187 0003777 204.6302 155.4107 15.00439878823053 ISS (ZARYA) 1 25544U 98067A 08356.55892443 .00007137 00000-0 58709-4 0 9038 2 25544 051.6411 136.1601 0007782 113.2176 337.8017 15.71677458578014 CXO 1 25867U 99040B 08352.78682399 .00000000 00000-0 10000-3 0 2762 2 25867 064.6326 075.2428 7176269 277.0774 013.2252 00.37815303 4321 ____________________________________________________________________ These 2-Line ...Continue Reading

[list_settings.list_name] Current TLEs

December 22nd 2008 PST

HST 1 20580U 90037B 08355.92570676 .00000284 00000-0 90862-5 0 2882 2 20580 028.4689 185.2187 0003777 204.6302 155.4107 15.00439878823053 ISS (ZARYA) 1 25544U 98067A 08355.54620620 .00007085 00000-0 58358-4 0 8965 2 25544 051.6410 141.3437 0007742 109.2844 007.9069 15.71661590577854 CXO 1 25867U 99040B 08352.78682399 .00000000 00000-0 10000-3 0 2762 2 25867 064.6326 075.2428 7176269 277.0774 013.2252 00.37815303 4321 ____________________________________________________________________ These 2-Line ...Continue Reading

[list_settings.list_name] Current TLEs

December 21st 2008 PST

HST 1 20580U 90037B 08354.86144674 .00000305 00000-0 10713-4 0 2878 2 20580 028.4689 192.1619 0003809 193.5836 166.4651 15.00439791822895 ISS (ZARYA) 1 25544U 98067A 08354.57922528 .00007074 00000-0 58311-4 0 8898 2 25544 051.6411 146.2928 0007777 106.0216 296.3529 15.71646678577709 CXO 1 25867U 99040B 08352.78682399 .00000000 00000-0 10000-3 0 2762 2 25867 064.6326 075.2428 7176269 277.0774 013.2252 00.37815303 4321 ____________________________________________________________________ These 2-Line ...Continue Reading

[list_settings.list_name] Current TLEs

December 20th 2008 PST

HST 1 20580U 90037B 08353.79718393 .00000410 00000-0 18865-4 0 2866 2 20580 028.4683 199.1166 0004234 189.7983 170.2492 15.00440514822730 ISS (ZARYA) 1 25544U 98067A 08352.55733206 .00011020 00000-0 88401-4 0 8762 2 25544 051.6385 156.6387 0007626 100.1805 014.8765 15.71585814577388 CXO 1 25867U 99040B 08352.78682399 .00000000 00000-0 10000-3 0 2762 2 25867 064.6326 075.2428 7176269 277.0774 013.2252 00.37815303 4321 ____________________________________________________________________ These 2-Line ...Continue Reading

[list_settings.list_name] Current TLEs

December 19th 2008 PST

HST 1 20580U 90037B 08352.00124794 .00000344 00000-0 13751-4 0 2859 2 20580 028.4694 210.8228 0003896 165.8669 194.2031 15.00439378822462 ISS (ZARYA) 1 25544U 98067A 08352.55733206 .00011020 00000-0 88401-4 0 8762 2 25544 051.6385 156.6387 0007626 100.1805 014.8765 15.71585814577388 CXO 1 25867U 99040B 08339.56655706 .00000000 00000-0 10000-3 0 2721 2 25867 064.5709 075.6392 7151623 277.1635 013.5567 00.37817443 4287 ____________________________________________________________________ These 2-Line ...Continue Reading
  • This mailing list is a public mailing list - anyone may join or leave, at any time.
  • This mailing list is announce-only.

International Space Station (ISS) / Hubble Space Telescope (HST) / Chandra X-Ray Observatory Orbital Data via EMAIL

Privacy Policy:

Private list